Location: Moscow Pond
(43.6842°N, 73.2366°W)
Time: 20:31:01
(UTC+00:00)

NOAA 12 - Pass Details

Date: 08 November 2025
Orbit: 793 x 812 km, 98.6° (Epoch: 10 December)

Event Time Altitude Azimuth Distance (km) Brightness Sun altitude
Rises 10:42:04 0° 7° (N) 3,344 7.3 -10.5°
Reaches altitude 10° 10:44:30 10° 1° (N) 2,409 6.5 -10.1°
Maximum altitude 10:49:31 43° 291° (WNW) 1,124 4.4 -9.2°
Drops below altitude 10° 10:54:30 10° 221° (SW) 2,393 6.3 -8.3°
Sets 10:56:55 0° 215° (SW) 3,319 7.1 -7.9°
